Regional Weather Roundup
Issued by NWS

Home | Current Version | Previous Version | Graphics & Text | Print | Product List | Glossary On
Versions: 1 2 3 4 5 6 7 8 9 10 11 12 13 14 15 16 17 18 19 20 21 22 23 24 25 26 27 28 29 30 31 32 33 34 35 36 37 38 39 40 41 42 43 44 45 46 47 48
000
ASUS45 KBOU 231110
RWRCO

WEATHER ROUNDUP FOR COLORADO
NATIONAL WEATHER SERVICE PUEBLO CO
500 AM MDT MON APR 23 2018

NOTE: "FAIR" INDICATES FEW OR NO CLOUDS BELOW 12000 FEET WITH NO
SIGNIFICANT WEATHER AND/OR OBSTRUCTIONS TO VISIBILITY.

COZ001>005-013-030-031-231200-
...NORTHWEST COLORADO...

CITY           SKY/WX    TMP DP  RH WIND       PRES   REMARKS
CRAIG          CLEAR     33  30  88 CALM      30.09R
HAYDEN         NOT AVBL
MEEKER         PTCLDY    36  30  79 CALM      30.10S
RABBIT EARS PA NOT AVBL
STEAMBOAT SPGS FAIR      35  28  75 CALM      30.12S
WALDEN         FAIR      27  21  80 SE8       30.18S WCI  18
$$

COZ006>008-011-231200-
...WEST CENTRAL VALLEYS...

CITY           SKY/WX    TMP DP  RH WIND       PRES   REMARKS
GRAND JUNCTION PTCLDY    49  33  54 E10       30.03S
MONTROSE       CLEAR     42  30  62 SE7       30.11R
EAGLE          CLEAR     34  30  85 CALM      30.18R
RIFLE          CLEAR     40  36  86 E5        30.09R
DELTA          NOT AVBL
NUCLA          FAIR      43  28  56 SE9       30.14R
$$

COZ017>023-064>068-231200-
...SOUTHWEST COLORADO...

CITY           SKY/WX    TMP DP  RH WIND       PRES   REMARKS
DURANGO        CLEAR     36  23  59 CALM      30.16R
CORTEZ         CLEAR     33  21  61 E5        30.12R WCI  29
PAGOSA SPRINGS FAIR      32  18  57 CALM      30.22R
TELLURIDE      CLEAR     38  26  63 SE7       30.27S
WOLF CREEK PAS CLEAR     30  12  47 SW13      30.40S WCI  20
$$

COZ009-010-012-014-032>034-037-058>063-231200-
...CENTRAL COLORADO...

CITY           SKY/WX    TMP DP  RH WIND       PRES   REMARKS
ASPEN          MOCLDY    38  27  64 SW9       30.15F
BUENA VISTA    FAIR      35  32  88 CALM      30.22F
COPPER MTN     NOT AVBL
BERTHOUD PASS  FAIR      28  18  64 W20       30.33F WCI  15
COTTONWOOD PAS PTCLDY    41  32  70 W9        30.27S
GUNNISON       CLEAR     31  28  89 CALM      30.22S
KREMMLING      PTCLDY    34  32  93 CALM      30.19S
LEADVILLE      CLOUDY    31  31 100 CALM      30.26S
MONARCH PASS   CLEAR     32  23  69 SW14      30.44S WCI  22
SALIDA         FAIR      37  33  85 W5        30.29S
SUNLIGHT       CLEAR     32  23  69 SW9       30.31S WCI  24
WILKERSON PASS MOCLDY    32  28  86 W6        30.33S WCI  26
$$

COZ069>075-231200-
...SAN LUIS VALLEY/SANGRE DE CRISTO MOUNTAINS...

CITY           SKY/WX    TMP DP  RH WIND       PRES   REMARKS
ALAMOSA        PTCLDY    32  22  66 SW3       30.19R
DEL NORTE      FAIR      36  23  59 W10       30.22R
LA VETA PASS   PTCLDY    34  25  69 SW18G25   30.37F WCI  23
SAGUACHE       NOT AVBL
$$

COZ035-036-038>040-231200-
...NORTHERN COLORADO FRONT RANGE...

CITY           SKY/WX    TMP DP  RH WIND       PRES   REMARKS
DENVER INTL AP PTCLDY    43  35  73 SW7       30.08S
DMNS CITY PARK NOT AVBL
AURORA         NOT AVBL
FRONT RANGE AP FAIR      42  38  84 SW7       30.09S
ERIE MUNI ARPT FAIR      37  35  94 CALM      30.15R
BOULDER MUN AP FAIR      41  37  87 CALM      30.09S
CENTENNIAL     PTCLDY    40  36  86 SE5       30.09R
BROOMFIELD     CLEAR     41  36  81 W3        30.10R
LOVELAND       CLEAR     37  35  92 N6        30.09F
LONGMONT       FAIR      39  35  83 CALM      30.11S
$$

COZ041-046-047-076>085-087-088-231200-
...PIKES PEAK/PALMER DIVIDE AND SOUTHERN FOOTHILLS...

CITY           SKY/WX    TMP DP  RH WIND       PRES   REMARKS
COLO. SPRINGS  PTCLDY    37  33  85 N3        30.15F
A. F. ACADEMY  PTCLDY    33  32  95 N5        30.14F WCI  29
SCHRIEVER AFB  NOT AVBL
CHEYENNE MTN   NOT AVBL
ELLICOTT         N/A    N/A N/A N/A CALM      30.13F
FALCON         FAIR      34  32  94 CALM      30.16S
FORT CARSON    PTCLDY    35  33  92 NW6       30.12F WCI  30
LIMON          CLEAR     28  28 100 SE7       30.14F WCI  21
MONUMENT HILL  CLEAR     34  32  93 SW6       30.15S WCI  29
CANON CITY     FAIR      37  36  93 CALM      30.13F
WALSENBURG     FAIR      34  32  93 CALM      30.15S
TRINIDAD       CLEAR     37  32  82 CALM      30.14S
$$

COZ042>045-048>051-090-091-231200-
...NORTHEAST COLORADO...

CITY           SKY/WX    TMP DP  RH WIND       PRES   REMARKS
GREELEY ARPT   CLEAR     34  33  96 N6        30.09S WCI  29
AKRON          CLEAR     37  34  89 S13       30.10F
BURLINGTON     CLEAR     36  33  89 S10       30.15S
WRAY           FAIR      36  32  87 SW6       30.14F
YUMA           NOT AVBL
STERLING       NOT AVBL
HOLYOKE        FAIR      34  32  93 S3        30.14S
FORT MORGAN    FAIR      33  32  95 E6        30.09F WCI  27
$$

COZ086-089-092>099-231200-
...SOUTHEAST COLORADO...

CITY           SKY/WX    TMP DP  RH WIND       PRES   REMARKS
PUEBLO         PTCLDY    39  33  79 N6        30.13F
LA JUNTA       CLEAR     36  33  89 CALM      30.13S
LAMAR          CLEAR     34  31  88 N3        30.13F
SPRINGFIELD      N/A     33  32  96 S8        30.15F WCI  26
$$





USA.gov is the U.S. government's official web portal to all federal, state and local government web resources and services.